Find Starlink 11083

NORAD ID: 59424 Int'l Des: 2024-065 Owner: SPXS Country: US Constellation: starlink operational
LEOCIRCULAR

实时位置

正在加载3D地球...

关于 Starlink 11083

正在加载描述...

即将过境

Passes for default location (London). Set your location on the main map for personalized predictions.

高度历史

Loading altitude history...

两行轨道根数

1 59424U 24065D 26127.27586436 -.00000379 00000-0 17326-5 0 9994
2 59424 53.1606 165.1574 0001169 87.8581 272.2571 15.69704034120671
Epoch: May 7, 2026 • Age: 10 hours

当前状态

高度 363.4 km
速度 7.70 km/s
星下点 43.47°N, 171.81°W
发射日期 Apr 7, 2024
运行时间 2 years
类型 internet

技术详情

分类 Payload
质量 960.00 kg
干质量 910.00 kg
总质量 960.00 kg
长度 0.30 m
直径 4.10 m
跨度 29.00 m
形状 Box + pan
制造商 SPXS
平台类型 Starlink V2MD
阶段状态 In Orbit
所有者/国家 SPXS/US

Most Searched